This is the latest recevied weather packets stored in our database for station/object KC5TIL-3. If no packets are shown the sender has not sent any weather packets the latest 10 day(s).
| Time | Temp. | Humidity | Pressure | Rain* | Wind** | Luminosity | Snow |
|---|---|---|---|---|---|---|---|
| 1777478203 | 15.56° C | 45% | 1013.8 hPa | 0 mm | 3.13 m/s, 3° | - | - |
| 1777477301 | 15.56° C | 45% | 1013.8 hPa | 0 mm | 3.58 m/s, 32° | - | - |
| 1777476995 | 15.56° C | 44% | 1013.8 hPa | 0 mm | 4.47 m/s, 22° | - | - |
| 1777476384 | 15.56° C | 44% | 1013.8 hPa | 0 mm | 4.92 m/s, 35° | - | - |
| 1777476083 | 16.11° C | 45% | 1013.8 hPa | 0 mm | 3.58 m/s, 35° | - | - |
| 1777474584 | 16.11° C | 44% | 1013.8 hPa | 0 mm | 2.68 m/s, 22° | - | - |
| 1777473687 | 16.11° C | 44% | 1013.8 hPa | 0 mm | 3.58 m/s, 351° | - | - |
| 1777473386 | 15.56° C | 44% | 1013.8 hPa | 0 mm | 3.58 m/s, 42° | - | - |
| 1777472789 | 16.11° C | 46% | 1013.8 hPa | 0 mm | 3.13 m/s, 24° | - | - |
| 1777472190 | 15.56° C | 46% | 1012.8 hPa | 0 mm | 3.13 m/s, 43° | - | - |
| 1777471892 | 15.56° C | 46% | 1012.8 hPa | 0 mm | 3.13 m/s, 17° | - | - |
| 1777471292 | 15.56° C | 46% | 1012.8 hPa | 0 mm | 3.13 m/s, 9° | - | - |
| 1777470994 | 16.11° C | 45% | 1012.8 hPa | 0 mm | 4.02 m/s, 351° | - | - |
| 1777470693 | 16.11° C | 45% | 1012.8 hPa | 0 mm | 4.47 m/s, 55° | - | - |
| 1777470394 | 16.11° C | 45% | 1012.8 hPa | 0 mm | 3.58 m/s, 49° | - | - |
| 1777470097 | 16.11° C | 45% | 1012.8 hPa | 0 mm | 4.02 m/s, 269° | - | - |
| 1777469791 | 16.11° C | 45% | 1012.8 hPa | 0 mm | 4.47 m/s, 344° | - | - |
| 1777469492 | 16.11° C | 45% | 1012.8 hPa | 0 mm | 4.02 m/s, 337° | - | - |
| 1777468893 | 16.11° C | 45% | 1012.8 hPa | 0 mm | 3.13 m/s, 313° | - | - |
| 1777468594 | 16.11° C | 46% | 1012.8 hPa | 0 mm | 4.02 m/s, 29° | - | - |
| 1777467996 | 16.67° C | 47% | 1012.8 hPa | 0 mm | 3.13 m/s, 60° | - | - |
| 1777467692 | 16.67° C | 48% | 1012.8 hPa | 0 mm | 2.24 m/s, 330° | - | - |
| 1777466790 | 16.67° C | 47% | 1012.8 hPa | 0 mm | 3.58 m/s, 28° | - | - |
| 1777466491 | 16.67° C | 47% | 1012.8 hPa | 0 mm | 4.02 m/s, 315° | - | - |
| 1777466190 | 16.67° C | 47% | 1011.8 hPa | 0 mm | 3.13 m/s, 161° | - | - |
* Rain latest hour (hover to see other rain measurements)
** Current wind speed in m/s (hover to see current wind gust speed)